Location: Newark
(33.5333°N, 7.5833°W)
Time: 08:00:24
(UTC+00:00)

ISS - Visible Passes

Search period start: 20 September 2020 00:00
Search period end: 30 September 2020 00:00
Orbit: 419 x 420 km, 51.6° (Epoch: 20 September)

Date Brightness Start Highest point End Pass type
(mag) Time Alt. Az. Time Alt. Az. Time Alt. Az.
20 Sep -0.9 19:37:46 10° WNW 19:39:46 15° NNW 19:41:47 10° N visible
21 Sep -1.4 18:49:29 10° W 18:52:13 22° NW 18:54:57 10° NNE visible
23 Sep -0.6 18:54:24 10° NNW 18:54:36 10° NNW 18:54:49 10° NNW visible
